TimeEEST,TemperatureF,Dew PointF,Humidity,Sea Level PressureIn,VisibilityMPH,Wind Direction,Wind SpeedMPH,Gust SpeedMPH,PrecipitationIn,Events,Conditions,WindDirDegrees,DateUTC
12:50 AM,60.8,33.8,36,29.98,6.2,SSE,8.1,-,N/A,,Mostly Cloudy,160,2012-10-08 21:50:00
1:50 AM,60.8,33.8,36,29.98,4.3,South,13.8,-,N/A,,Widespread Dust,170,2012-10-08 22:50:00
2:50 AM,59.0,35.6,42,29.98,4.3,SSE,12.7,-,N/A,,Widespread Dust,160,2012-10-08 23:50:00
3:00 AM,59,35,29,,4,SSE,12.7,,,,Widespread Dust,160,2012-10-09 00:00:00
3:50 AM,59.0,35.6,42,29.98,5.0,SSE,10.4,-,N/A,,Mostly Cloudy,160,2012-10-09 00:50:00
4:50 AM,57.2,35.6,44,29.98,5.0,SSE,8.1,-,N/A,,Mostly Cloudy,160,2012-10-09 01:50:00
5:50 AM,57.2,37.4,48,29.98,5.0,South,9.2,-,N/A,,Mostly Cloudy,180,2012-10-09 02:50:00
6:50 AM,57.2,35.6,44,29.98,6.2,South,12.7,-,N/A,,Mostly Cloudy,170,2012-10-09 03:50:00
7:50 AM,59.0,35.6,42,30.01,6.2,SSE,11.5,-,N/A,,Mostly Cloudy,160,2012-10-09 04:50:00
8:50 AM,62.6,37.4,39,30.01,6.2,SSW,9.2,-,N/A,,Scattered Clouds,210,2012-10-09 05:50:00
9:00 AM,62,36,26,,6,SSW,9.2,,,,Partly Cloudy,210,2012-10-09 06:00:00
9:50 AM,64.4,37.4,37,30.01,6.2,West,6.9,-,N/A,,Scattered Clouds,280,2012-10-09 06:50:00
10:50 AM,64.4,41.0,42,30.01,6.2,NW,8.1,-,N/A,,Mostly Cloudy,320,2012-10-09 07:50:00
11:50 AM,64.4,41.0,42,30.01,6.2,WNW,8.1,-,N/A,,Mostly Cloudy,300,2012-10-09 08:50:00
12:50 PM,64.4,42.8,45,30.01,6.2,NW,9.2,-,N/A,,Mostly Cloudy,310,2012-10-09 09:50:00
1:50 PM,64.4,42.8,45,30.01,6.2,WNW,9.2,-,N/A,,Mostly Cloudy,300,2012-10-09 10:50:00
2:50 PM,66.2,44.6,46,30.01,6.2,Variable,4.6,-,N/A,,Mostly Cloudy,0,2012-10-09 11:50:00
3:00 PM,65,44,35,,6,WNW,4.6,,,,Mostly Cloudy,290,2012-10-09 12:00:00
3:50 PM,64.4,44.6,49,30.01,6.2,NW,5.8,-,N/A,,Mostly Cloudy,320,2012-10-09 12:50:00
4:50 PM,62.6,44.6,52,30.01,6.2,NNW,6.9,-,N/A,,Mostly Cloudy,330,2012-10-09 13:50:00
5:50 PM,57.2,42.8,59,30.01,6.2,NNE,4.6,-,N/A,,Mostly Cloudy,20,2012-10-09 14:50:00
6:50 PM,57.2,42.8,59,30.04,6.2,SE,4.6,-,N/A,,Mostly Cloudy,140,2012-10-09 15:50:00
7:50 PM,55.4,41.0,58,30.04,6.2,SE,4.6,-,N/A,,Mostly Cloudy,140,2012-10-09 16:50:00
8:50 PM,55.4,39.2,54,30.04,6.2,ESE,4.6,-,N/A,,Mostly Cloudy,110,2012-10-09 17:50:00
9:00 PM,55,39,43,,6,ESE,4.6,,,,Partly Cloudy,110,2012-10-09 18:00:00
9:50 PM,55.4,39.2,54,30.06,6.2,Variable,3.5,-,N/A,,Mostly Cloudy,0,2012-10-09 18:50:00
10:50 PM,55.4,35.6,47,30.06,6.2,Variable,2.3,-,N/A,,Mostly Cloudy,0,2012-10-09 19:50:00
11:50 PM,55.4,37.4,51,30.06,6.2,ESE,5.8,-,N/A,,Mostly Cloudy,120,2012-10-09 20:50:00